KINEIS-4E

Last updated on Wed Mar 11 2026 00:02:47 GMT+0000 (Coordinated Universal Time)

1 63300U 25056A 26069.50184954 .00002429 00000+0 39219-3 0 9992 2 63300 97.9887 195.7937 0000919 169.9821 190.1405 14.72285911 52601
UTC large
Height (km)
Speed (km/s)
/
Latitude / Longitude
Inclination (degrees)
Orbital Period (minutes)
Azimuth
Elevation
Range (km)
Doppler Factor

Next 0 passes for location: London (51.5072 / 0.1276)

Sorry there are no passes over London.